Weather History for Tallahassee, FL

Change the Weather History Date:

Tuesday, February 26, 2013

  Actual Average Record
Temperature  
Mean Temperature 65 °F 57 °F  
Max Temperature 75 °F 70 °F 84 °F (1930)
Min Temperature 54 °F 44 °F 21 °F (1967)
Degree Days  
Heating Degree Days 0    
Month to date heating degree days 239  
Since 1 July heating degree days 957  
Cooling Degree Days 0    
Month to date cooling degree days 16  
Year to date cooling degree days 50  
Growing Degree Days 15 (Base 50)    
Moisture  
Dew Point 52 °F    
Average Humidity 62    
Maximum Humidity 90    
Minimum Humidity 34    
Precipitation  
Precipitation 1.45 in 0.19 in 2.05 in (1939)
Month to date precipitation 12.36 4.48  
Year to date precipitation 13.21 8.82  
Sea Level Pressure  
Sea Level Pressure 29.69 in    
Wind  
Wind Speed 14 mph (WSW)    
Max Wind Speed 21 mph    
Max Gust Speed 27 mph    
Visibility 10 miles    
Events Rain , Thunderstorm    
T = Trace of Precipitation, MM = Missing Value Source: NWS Daily Summary

Daily Weather History Graph

Daily Weather History Graph

Search for Another Location

Airport:

Trip Planner

Search our weather history database for the weather conditions in past years. The results will help you decide how hot, cold, wet, or windy it might be!

Date:

Astronomy

Feb. 26, 2013 Rise Set
Actual Time 7:06 AM EST 6:34 PM EST
Civil Twilight 6:42 AM EST 6:58 PM EST
Nautical Twilight 6:14 AM EST 7:26 PM EST
Astronomical Twilight 5:46 AM EST 7:54 PM EST
Moon 7:40 PM EST (2/26) 7:15 AM EST (2/26)
Length of Visible Light 12h 16m
Length of Day
11h 27m
Full, 99% of the Moon is Illuminated
Feb 26
Full
Mar 4
Last Quarter
Mar 11
New
Mar 19
First Quarter
Mar 27
Full

Hourly Weather History & Observations

Time (EST) Temp. Dew Point Humidity Pressure Visibility Wind Dir Wind Speed Gust Speed Precip Events Conditions
12:53 AM - - N/A% 29.69 in - North - - N/A   Unknown
1:53 AM - - N/A% 29.68 in - North - - N/A   Unknown
2:53 AM - - N/A% 29.64 in - North - - N/A   Unknown
3:53 AM - - N/A% 29.56 in - North - - N/A   Unknown
4:53 AM - - N/A% 29.53 in - North - - N/A   Unknown
5:28 AM - - N/A% 29.55 in - North - - N/A Thunderstorm Thunderstorm
5:43 AM - - N/A% 29.54 in - North - - N/A   Unknown
5:53 AM 69.1 °F 68.0 °F 96% 29.57 in 10.0 mi SW 12.7 mph 23.0 mph N/A Rain Light Rain
6:53 AM 68.0 °F 66.9 °F 96% 29.58 in 10.0 mi SW 9.2 mph - N/A   Mostly Cloudy
7:53 AM 65.3 °F 62.4 °F 90% 29.64 in 10.0 mi WSW 15.0 mph - N/A   Scattered Clouds
8:53 AM 64.6 °F 57.6 °F 78% 29.68 in 10.0 mi WSW 13.8 mph - N/A   Scattered Clouds
9:53 AM 67.5 °F 53.2 °F 60% 29.69 in 10.0 mi WSW 16.1 mph 20.7 mph N/A   Clear
10:53 AM 68.4 °F 50.9 °F 54% 29.71 in 10.0 mi WSW 19.6 mph 25.3 mph N/A   Clear
11:53 AM 69.4 °F 48.9 °F 48% 29.72 in 10.0 mi WSW 17.3 mph 21.9 mph N/A   Partly Cloudy
12:53 PM 70.3 °F 47.1 °F 43% 29.72 in 10.0 mi WSW 17.3 mph 21.9 mph N/A   Clear
1:53 PM 72.9 °F 48.7 °F 42% 29.71 in 10.0 mi WSW 15.0 mph - N/A   Clear
2:53 PM 74.8 °F 45.1 °F 35% 29.70 in 10.0 mi WSW 20.7 mph 26.5 mph N/A   Clear
3:53 PM 74.5 °F 44.6 °F 34% 29.70 in 10.0 mi WSW 19.6 mph - N/A   Clear
4:53 PM 72.7 °F 44.8 °F 37% 29.71 in 10.0 mi West 17.3 mph 24.2 mph N/A   Clear
5:53 PM 65.5 °F 47.1 °F 51% 29.73 in 10.0 mi WSW 11.5 mph - N/A   Clear
6:53 PM 60.8 °F 48.7 °F 64% 29.76 in 10.0 mi WSW 11.5 mph - N/A   Clear
7:53 PM 58.1 °F 48.6 °F 71% 29.80 in 10.0 mi WSW 9.2 mph - N/A   Clear
8:53 PM 55.8 °F 49.3 °F 79% 29.83 in 10.0 mi West 6.9 mph - N/A   Clear
9:53 PM 56.3 °F 49.6 °F 78% 29.86 in 10.0 mi West 11.5 mph - N/A   Clear
10:53 PM 54.0 °F 49.8 °F 86% 29.88 in 10.0 mi WSW 6.9 mph - N/A   Clear
11:53 PM - - N/A% 29.87 in - North - - N/A   Unknown